Home   Weather   Portland   Past weeks

Flag for USA Past Weather in Portland, Oregon, USA — Yesterday and Last 2 Weeks

Now
53 °F

Partly sunny.


Feels Like: 50 °F
Forecast: 46 / 56 °F
Wind: 9 mph from Northwest

Location: Portland International Airport

Current Time: Apr 30, 2017 at 11:57:01 am

Latest Report: Apr 30, 2017 at 10:53 am


Visibility: 10 mi

Pressure: 30.35 "Hg

Humidity: 56%

Dew Point: 38 °F

Location of PortlandLocation

Past Weather in Portland — Graph

°F

Portland Temperature Yesterday

Maximum temperature yesterday: 64 °F (at 3:53 pm)
Minimum temperature yesterday: 41 °F (at 4:53 am)
Average temperature yesterday: 52 °F

High & Low Weather Summary for the Past Weeks

 TemperatureHumidityPressure
High69 °F (Apr 21, 3:53 pm)97% (Apr 25, 8:59 pm)30.43 "Hg (Apr 25, 8:59 pm)
Low40 °F (Apr 21, 3:53 am)32% (Apr 29, 3:53 pm)29.67 "Hg (Apr 24, 9:53 am)
Average52 °F74%30.04 "Hg
* Reported Apr 15 9:02 am — Apr 30 9:53 am, Portland, Weather by CustomWeather, © 2017

Note: Actual official high and low records may vary slightly from our data, if they occured in-between our weather recording intervals... More about our weather records

Advertising

Portland Weather History for the Previous 24 Hours

Scroll right to see more
 ConditionsComfort  
Time TempWeatherWind HumidityBarometerVisibility
9:53 am
Sun, Apr 30
52 °FPartly sunny.14 mph61%30.33 "Hg10 mi
8:53 am51 °FScattered clouds.10 mph66%30.30 "Hg10 mi
7:53 am50 °FPartly sunny.13 mph74%30.28 "Hg10 mi
6:53 am50 °FPartly sunny.6 mph83%30.24 "Hg10 mi
5:53 am50 °FMostly cloudy.12 mph86%30.23 "Hg10 mi
4:53 am51 °FLight rain. Mostly cloudy.6 mph89%30.21 "Hg10 mi
4:00 am51 °FOvercast.5 mph89%30.21 "Hg10 mi
2:53 am51 °FOvercast.5 mph86%30.19 "Hg10 mi
1:53 am50 °FMostly cloudy.3 mph89%30.19 "Hg10 mi
12:53 am50 °FLight rain. Overcast.6 mph86%30.19 "Hg8 mi
11:53 pm
Sat, Apr 29
51 °FLight rain. Mostly cloudy.5 mph80%30.18 "Hg10 mi
10:53 pm52 °FLight rain. Mostly cloudy.9 mph86%30.18 "Hg10 mi
9:53 pm53 °FLight rain. Overcast.10 mph77%30.19 "Hg10 mi
8:53 pm54 °FLight rain. Overcast.5 mph80%30.19 "Hg10 mi
7:53 pm57 °FLight rain. Overcast.5 mph74%30.17 "Hg10 mi
6:53 pm60 °FLight rain. Overcast.7 mph60%30.18 "Hg10 mi
5:53 pm62 °FLight rain. Mostly cloudy.3 mph48%30.18 "Hg10 mi
4:53 pm64 °FCloudy.9 mph33%30.19 "Hg10 mi
3:53 pm64 °FPartly sunny.10 mph32%30.20 "Hg10 mi
2:53 pm62 °FMostly cloudy.8 mph41%30.22 "Hg10 mi
1:53 pm60 °FMostly cloudy.3 mph49%30.24 "Hg10 mi
12:53 pm59 °FCloudy.3 mph56%30.24 "Hg10 mi
11:53 am55 °FMostly cloudy.7 mph64%30.27 "Hg10 mi
Weather by CustomWeather, © 2017

See weather overviewHow to use our weather pages